Trinidad, Colorado, United States (81082)
Lat: 37.17N, Lon: 104.5W
Wx Zone: COZ088
Local Info
Past Weather Observations for Friday, February 27, 2015

NOTE: This archive is for the closest National Weather Service station to Trinidad. Information may differ from the station used for current weather conditions.

Click here for Long-term Archive

Time Weather Temperature Dewpoint Humidity Pressure Winds Precip Visibility
23:54
Mostly Cloudy
12°F / -11°C 7°F / -14°C 79% 29.92 in
(1013 mb)
NNW 4.6 mph
(NNW 7 kph)
- 10SM
22:54
Partly Cloudy
10°F / -12°C 5°F / -15°C 79% 29.92 in
(1013 mb)
NW 9.2 mph
(NW 15 kph)
- 10SM
21:54
Overcast
10°F / -12°C 5°F / -15°C 79% 29.95 in
(1014 mb)
NW 6.9 mph
(NW 11 kph)
- 10SM
21:50
Overcast
10°F / -12°C 5°F / -15°C 79% 29.92 in
(1013 mb)
NNW 8.1 mph
(NNW 13 kph)
- 10SM
21:29
Mostly Cloudy
10°F / -12°C 7°F / -14°C 85% 29.95 in
(1014 mb)
NW 8.1 mph
(NW 13 kph)
- 10SM
20:54
Partly Cloudy
10°F / -12°C 5°F / -15°C 79% 29.92 in
(1013 mb)
NW 8.1 mph
(NW 13 kph)
- 10SM
19:54
Partly Cloudy
10°F / -12°C 5°F / -15°C 79% 29.92 in
(1013 mb)
NW 8.1 mph
(NW 13 kph)
- 10SM
18:54
Clear
10°F / -12°C 7°F / -14°C 85% 29.92 in
(1013 mb)
NW 11.5 mph
(NW 19 kph)
- 10SM
17:54
Clear
12°F / -11°C 9°F / -13°C 85% 29.92 in
(1013 mb)
NW 10.4 mph
(NW 17 kph)
- 10SM
16:54
Clear
19°F / -7°C 9°F / -13°C 63% 29.89 in
(1012 mb)
Calm - 10SM
15:54
Clear
19°F / -7°C 10°F / -12°C 68% 29.86 in
(1011 mb)
E 5.8 mph
(E 9 kph)
- 10SM
14:54
Clear
21°F / -6°C 9°F / -13°C 58% 29.89 in
(1012 mb)
NE 4.6 mph
(NE 7 kph)
- 10SM
13:54
Clear
19°F / -7°C 7°F / -14°C 58% 29.92 in
(1013 mb)
E 3.5 mph
(E 6 kph)
- 10SM
12:54
Clear
18°F / -8°C 9°F / -13°C 68% 29.92 in
(1013 mb)
E 8.1 mph
(E 13 kph)
- 10SM
11:54
Clear
18°F / -8°C 7°F / -14°C 62% 29.95 in
(1014 mb)
ENE 5.8 mph
(ENE 9 kph)
- 10SM
10:54
Clear
16°F / -9°C 9°F / -13°C 73% 29.98 in
(1015 mb)
ENE 8.1 mph
(ENE 13 kph)
- 10SM
09:54
Clear
16°F / -9°C 7°F / -14°C 67% 30.01 in
(1016 mb)
ENE 5.8 mph
(ENE 9 kph)
- 10SM
08:54
Mostly Cloudy
12°F / -11°C 7°F / -14°C 79% 30.01 in
(1016 mb)
ENE 4.6 mph
(ENE 7 kph)
- 10SM
07:54
Mostly Cloudy
10°F / -12°C 5°F / -15°C 79% 30.01 in
(1016 mb)
N 5.8 mph
(N 9 kph)
- 10SM
07:23
Mostly Cloudy
7°F / -14°C 1°F / -17°C 78% 30.01 in
(1016 mb)
N 6.9 mph
(N 11 kph)
- 10SM
06:54
Overcast
Fog And Mist
5°F / -15°C 1°F / -17°C 85% 30.01 in
(1016 mb)
N 6.9 mph
(N 11 kph)
0.00 in
(0.00 mm)
6SM
06:45
Overcast
5°F / -15°C 1°F / -17°C 85% 30.01 in
(1016 mb)
NNE 6.9 mph
(NNE 11 kph)
0.00 in
(0.00 mm)
7SM
06:28
Overcast
7°F / -14°C 1°F / -17°C 78% 30.01 in
(1016 mb)
NNE 6.9 mph
(NNE 11 kph)
0.00 in
(0.00 mm)
8SM
06:08
Overcast
Fog And Mist
5°F / -15°C 1°F / -17°C 85% 30.01 in
(1016 mb)
NNW 6.9 mph
(NNW 11 kph)
0.00 in
(0.00 mm)
4SM
06:01
Overcast
Light Snow
7°F / -14°C 3°F / -16°C 85% 30.01 in
(1016 mb)
N 5.8 mph
(N 9 kph)
0.00 in
(0.00 mm)
2 1/2SM
05:54
Overcast
Light Snow
7°F / -14°C 3°F / -16°C 85% 30.01 in
(1016 mb)
N 8.1 mph
(N 13 kph)
0.00 in
(0.00 mm)
3SM
05:31
Overcast
Light Snow
9°F / -13°C 5°F / -15°C 85% 30.01 in
(1016 mb)
N 8.1 mph
(N 13 kph)
0.00 in
(0.00 mm)
3SM
05:14
Overcast
Light Snow
9°F / -13°C 5°F / -15°C 85% 30.01 in
(1016 mb)
N 6.9 mph
(N 11 kph)
0.00 in
(0.00 mm)
1 3/4SM
04:58
Overcast
Light Snow
9°F / -13°C 5°F / -15°C 85% 30.01 in
(1016 mb)
NNW 8.1 mph
(NNW 13 kph)
0.00 in
(0.00 mm)
3SM
04:53
Overcast
Light Snow
10°F / -12°C 5°F / -15°C 79% 30.01 in
(1016 mb)
NNW 8.1 mph
(NNW 13 kph)
0.00 in
(0.00 mm)
2 1/2SM
04:52
Overcast
Light Snow
10°F / -12°C 5°F / -15°C 79% 30.01 in
(1016 mb)
NNW 9.2 mph
(NNW 15 kph)
0.00 in
(0.00 mm)
2 1/2SM
04:35
Overcast
Light Snow
9°F / -13°C 5°F / -15°C 85% 30.01 in
(1016 mb)
NNW 6.9 mph
(NNW 11 kph)
0.00 in
(0.00 mm)
1 1/4SM
04:22
Overcast
Light Snow
9°F / -13°C 5°F / -15°C 85% 30.01 in
(1016 mb)
NNW 8.1 mph
(NNW 13 kph)
0.00 in
(0.00 mm)
2 1/2SM
03:54
Overcast
Light Snow
9°F / -13°C 3°F / -16°C 78% 30.01 in
(1016 mb)
NW 9.2 mph
(NW 15 kph)
0.00 in
(0.00 mm)
3SM
03:36
Overcast
Fog And Mist
9°F / -13°C 3°F / -16°C 78% 30.04 in
(1017 mb)
NW 10.4 mph
(NW 17 kph)
0.00 in
(0.00 mm)
6SM
02:54
Overcast
Light Snow
9°F / -13°C 5°F / -15°C 85% 30.04 in
(1017 mb)
NW 9.2 mph
(NW 15 kph)
0.00 in
(0.00 mm)
4SM
02:51
Overcast
Light Snow
9°F / -13°C 5°F / -15°C 85% 30.04 in
(1017 mb)
NNW 9.2 mph
(NNW 15 kph)
0.00 in
(0.00 mm)
4SM
02:37
Overcast
Light Snow
10°F / -12°C 5°F / -15°C 79% 30.04 in
(1017 mb)
NNW 6.9 mph
(NNW 11 kph)
0.00 in
(0.00 mm)
2 1/2SM
02:22
Overcast
Light Snow
10°F / -12°C 5°F / -15°C 79% 30.04 in
(1017 mb)
NNW 9.2 mph
(NNW 15 kph)
0.00 in
(0.00 mm)
3SM
02:15
Overcast
Light Snow
10°F / -12°C 5°F / -15°C 79% 30.04 in
(1017 mb)
NNW 8.1 mph
(NNW 13 kph)
0.00 in
(0.00 mm)
2 1/2SM
01:54
Overcast
Light Snow
10°F / -12°C 7°F / -14°C 85% 30.04 in
(1017 mb)
NNW 8.1 mph
(NNW 13 kph)
0.00 in
(0.00 mm)
1 1/2SM
00:54
Overcast
Light Snow
10°F / -12°C 5°F / -15°C 79% 30.06 in
(1018 mb)
NNW 9.2 mph
(NNW 15 kph)
0.00 in
(0.00 mm)
1 3/4SM
00:30
Overcast
Light Snow
10°F / -12°C 7°F / -14°C 85% 30.06 in
(1018 mb)
NW 11.5 mph
(NW 19 kph)
0.00 in
(0.00 mm)
2SM
Time Weather Temperature Dewpoint Humidity Pressure Winds Precip Visibility


Weather for websites

WeatherForYou.com, LLC is not responsible for any damages or problems caused by this service. Current weather conditions are obtained from the closest station including government and personal stations which may have varying degrees of accuracy. Weather forecasts are derived from the NOAA NDFD. Like all things, this site belongs to Jesus Christ... He just trusts me to maintain it. If you have any questions or comments email webmaster@weatherforyou.com

Copyright © 2015, WeatherForYou.com LLC. All rights reserved.